Location: Unspecified
(0.0000°N, 0.0000°E)
Time: 08:23:55
(UTC+02:00)

SJ-6B - Visible Passes

Search period start: 02 October 2014 00:00
Search period end: 12 October 2014 00:00
Orbit: 520 x 597 km, 97.8° (Epoch: 01 October)

Date Brightness Start Highest point End Pass type
(mag) Time Alt. Az. Time Alt. Az. Time Alt. Az.
02 Oct 6.7 06:59:49 10° E 07:00:29 10° ESE 07:01:08 10° ESE visible
02 Oct 5.5 20:30:43 10° SSW 20:34:08 25° WSW 20:37:34 10° NW visible
03 Oct 5.4 20:29:01 10° SSW 20:32:30 27° WSW 20:36:01 10° NW visible
04 Oct 5.3 20:27:17 10° SSW 20:30:51 29° WSW 20:34:27 10° NW visible
05 Oct 5.2 20:25:34 10° SSW 20:29:12 30° WSW 20:32:53 10° NW visible
06 Oct 5.0 20:23:51 10° SSW 20:27:33 32° WSW 20:31:17 10° NW visible
07 Oct 4.9 20:22:07 10° SSW 20:25:53 34° WSW 20:29:41 10° NW visible
08 Oct 4.8 20:20:23 10° S 20:24:13 36° WSW 20:28:04 10° NW visible
09 Oct 4.7 20:18:39 10° S 20:22:32 39° WSW 20:26:26 10° NNW visible
10 Oct 4.5 20:16:54 10° S 20:20:50 41° WSW 20:24:47 10° NNW visible
11 Oct 4.4 20:15:10 10° S 20:19:08 44° WSW 20:23:08 10° NNW visible
